[[{"header":{"parameterUnit":"m.s-1","parameterCategory":1,"la1":30.2991,"la2":30.254,"lo1":-89.0895,"lo2":-89.0444,"dy":0.0017,"dx":0.0017,"nx":28,"ny":28,"refTime":"2023-11-10T03:00:00:Z","depth":0,"parameterNumber":2,"parameterNumberName":"U-component_of_WINDS"},"data":[0,0,0,0,0,0,0,0,0,0,0,0,0,0,0,0,0,0,0,0,0,0,0,0,0,0,0,0,0,0,0,0,0,0,0,0,0,0,0,0,0,0,0,0,0,0,0,0,0,0,0,0,0,0,0,0,0,0,-3.2792,-3.2793,0,-3.2903,-3.2904,-3.2906,-3.2833,-3.2829,-3.2826,-3.2823,-3.2947,-3.2953,-3.296,0,0,0,0,0,0,0,0,0,0,0,0,0,-3.2529,-3.2534,-3.2792,-3.2793,-3.2795,-3.2903,-3.2904,-3.2906,-3.2833,-3.2829,-3.2825,-3.2821,-3.2945,-3.2952,-3.296,0,0,0,0,0,0,0,0,0,0,0,0,0,-3.2642,-3.2536,-3.2792,-3.2771,-3.277,-3.2903,-3.2904,-3.2906,-3.2834,-3.2829,-3.2824,-3.2819,-3.2942,-3.2952,-3.2961,-3.3123,0,0,-3.2991,-3.2995,0,0,0,0,0,0,0,0,-3.2636,-3.2652,-3.2773,-3.2773,-3.2772,-3.2849,-3.2857,-3.2979,-3.2836,-3.281,-3.2823,-3.2817,-3.2919,-3.293,-3.2963,-3.3128,-3.3134,-3.2992,-3.2998,-3.3002,-3.3004,0,0,0,0,0,0,0,-3.2628,-3.2647,-3.2836,-3.2775,-3.2775,-3.2761,-3.2771,-3.288,-3.2892,-3.2812,-3.2807,-3.2821,-3.2918,-3.2953,-3.2965,-3.3135,-3.2991,-3.3,-3.3006,-3.301,-3.3446,-3.3452,0,0,0,0,0,0,-3.262,-3.2641,-3.2833,-3.2839,-3.269,-3.2769,-3.2781,-3.283,-3.2891,-3.2895,-3.2825,-3.2817,-3.2939,-3.2954,-3.2969,-3.3167,-3.3002,-3.3011,-3.3016,-3.3441,-3.3448,-3.3454,0,0,0,0,0,0,-3.2615,-3.2638,-3.2828,-3.2739,-3.2762,-3.2779,-3.2834,-3.2834,-3.287,-3.29,-3.2903,-3.2858,-3.2936,-3.2955,-3.3086,-3.317,-3.3015,-3.3024,-3.3434,-3.3443,-3.3451,-3.356,0,0,0,0,0,0,-3.2608,-3.2637,-3.2695,-3.274,-3.2767,-3.2939,-3.2839,-3.284,-3.2885,-3.2876,-3.2932,-3.2937,-3.2933,-3.3072,-3.3095,-3.318,-3.3031,-3.3426,-3.3438,-3.3448,-3.3549,-3.3572,-3.3591,0,0,0,0,0,-3.2599,-3.2722,-3.2698,-3.2722,-3.2839,-3.2944,-3.296,-3.295,-3.2892,-3.2954,-3.2974,-3.2935,-3.3156,-3.3086,-3.3112,-3.3201,-3.3421,-3.3435,-3.3447,-3.354,-3.3567,-3.359,0,0,0,0,0,0,-3.2688,-3.2728,-3.2702,-3.2843,-3.289,-3.2931,-3.3008,-3.2979,-3.3046,-3.3035,-3.3024,-3.3037,-3.3175,-3.32,-3.3121,-3.3364,-3.328,-3.3299,-3.3342,-3.3368,-3.3388,-3.3381,-3.3039,0,0,0,0,0,-3.2724,-3.2802,-3.2833,-3.2955,-3.298,-3.2991,-3.3036,-3.3025,-3.3075,-3.3096,-3.3125,-3.3179,-3.3261,-3.3315,-3.3392,-3.3552,-3.3567,-3.3627,-3.3647,-3.3664,-3.3682,-3.3775,-3.3804,-3.3497,-3.3497,-3.3496,0,0,-3.28,-3.2831,-3.2881,-3.2974,-3.301,-3.3096,-3.3008,-3.3101,-3.3167,-3.3111,-3.3236,-3.326,-3.332,-3.3467,-3.3533,-3.3493,-3.377,-3.3681,-3.3694,-3.3703,-3.3791,-3.3821,-3.3846,-3.3506,-3.3504,-3.3503,0,0,-3.2982,-3.3011,-3.3118,-3.3156,-3.321,-3.3217,-3.3243,-3.3289,-3.3303,-3.3427,-3.3389,-3.3469,-3.3608,-3.3654,-3.3696,-3.39,-3.3869,-3.3925,-3.4035,-3.4126,-3.415,-3.4171,-3.425,-3.4277,-3.3942,-3.3942,-3.3942,0,-3.307,-3.3194,-3.3178,-3.3275,-3.332,-3.3271,-3.3383,-3.3421,-3.35,-3.3534,-3.3486,-3.3664,-3.37,-3.3861,-3.3911,-3.3944,-3.3978,-3.392,-3.4147,-3.4168,-3.4188,-3.4263,-3.4292,-3.3949,-3.3948,-3.3948,-3.3947,0,-3.3303,-3.339,-3.3471,-3.3546,-3.3599,-3.3704,-3.3708,-3.3765,-3.375,-3.3763,-3.3895,-3.3936,-3.4023,-3.406,-3.4046,-3.4221,-3.4194,-3.4147,-3.4064,-3.4225,-3.4295,-3.4323,-3.3959,-3.3956,-3.3954,-3.3953,0,0,-3.3545,-3.3611,-3.3641,-3.3677,-3.3736,-3.3805,-3.391,-3.3992,-3.4044,-3.41,-3.4192,-3.4313,-3.4271,-3.4318,-3.431,-3.4389,-3.4556,-3.4333,-3.4334,-3.4378,-3.4757,-3.4796,-3.4829,-3.4534,-3.4539,-3.4543,-3.4754,0,-3.3734,-3.3913,-3.3903,-3.4073,-3.4157,-3.4114,-3.4206,-3.4255,-3.4271,-3.4348,-3.4366,-3.4454,-3.4389,-3.4418,-3.4494,-3.4519,-3.4633,-3.4503,-3.4625,-3.4629,-3.4615,-3.4864,-3.4904,-3.5101,-3.4781,-3.4785,-3.4789,0,-3.3978,-3.4043,-3.4221,-3.4271,-3.4306,-3.4388,-3.4466,-3.4538,-3.4595,-3.4601,-3.4656,-3.4636,-3.4748,-3.4659,-3.4816,-3.4729,-3.4778,-3.4799,-3.4806,-3.4821,-3.4722,-3.4891,-3.5163,-3.5194,-3.4831,-3.4827,-3.4824,0,-3.4144,-3.4274,-3.4399,-3.4431,-3.4491,-3.4551,-3.458,-3.4631,-3.4683,-3.4752,-3.4787,-3.4869,-3.4915,-3.4982,-3.4987,-3.4921,-3.5148,-3.5058,-3.5162,-3.5163,-3.5215,-3.5212,-3.5504,-3.5239,-3.5239,-3.5238,-3.5237,0,-3.4359,-3.4471,-3.4475,-3.4552,-3.4679,-3.4668,-3.4795,-3.4818,-3.4865,-3.495,-3.4917,-3.4999,-3.4998,-3.5083,-3.5088,-3.5221,-3.5241,-3.5254,-3.5255,-3.5259,-3.5259,-3.5295,-3.5283,-3.5246,-3.5244,-3.5243,-3.5241,0,-3.4566,-3.4572,-3.4706,-3.4753,-3.4767,-3.4859,-3.4901,-3.4978,-3.4991,-3.5099,-3.5124,-3.5147,-3.5245,-3.5256,-3.5371,-3.5375,-3.5537,-3.5521,-3.5518,-3.5517,-3.5622,-3.5614,-3.5951,-3.5997,-3.5697,-3.57,-3.5702,0,-3.4704,-3.479,-3.4846,-3.4899,-3.4931,-3.5017,-3.507,-3.5065,-3.5122,-3.5196,-3.5265,-3.5359,-3.5435,-3.5595,-3.5625,-3.5715,-3.5704,-3.5815,-3.5717,-3.5721,-3.5712,-3.5709,-3.5721,-3.5836,-3.5839,-3.5842,-3.5844,0,-3.4952,-3.4952,-3.5027,-3.5107,-3.5171,-3.5233,-3.5292,-3.5338,-3.5341,-3.5409,-3.5507,-3.5566,-3.5684,-3.5781,-3.5869,-3.5904,-3.5878,-3.5874,-3.5904,-3.5912,-3.5909,-3.5918,-3.5575,-3.5867,-3.5865,-3.5863,-3.5862,-3.5861,-3.5133,-3.5209,-3.5261,-3.5349,-3.5392,-3.5449,-3.5524,-3.5547,-3.5628,-3.5722,-3.5715,-3.5826,-3.5886,-3.6002,-3.6043,-3.6134,-3.6098,-3.6139,-3.6151,-3.6162,-3.6176,-3.589,-3.6149,-3.6149,-3.6148,-3.6148,-3.6147,0,-3.5384,-3.5415,-3.5496,-3.5579,-3.565,-3.5614,-3.5678,-3.5741,-3.5839,-3.5895,-3.597,-3.6088,-3.6182,-3.622,-3.6314,-3.638,-3.6371,-3.6406,-3.6403,-3.6413,-3.62,-3.6167,-3.6412,-3.6412,-3.6412,-3.6412,-3.6412,-3.6412,-3.5522,-3.5651,-3.5658,-3.581,-3.5842,-3.5949,-3.5989,-3.6044,-3.6089,-3.6221,-3.6298,-3.6321,-3.6373,-3.6471,-3.6558,-3.6567,-3.6606,-3.6648,-3.6653,-3.6454,-3.6427,-3.6402,-3.6371,-3.6655,-3.6655,-3.6859,-3.686,-3.6862]},{"header":{"parameterUnit":"m.s-1","parameterCategory":1,"la1":30.2991,"la2":30.254,"lo1":-89.0895,"lo2":-89.0444,"dy":0.0017,"dx":0.0017,"nx":28,"ny":28,"refTime":"2023-11-10T03:00:00:Z","depth":0,"parameterNumber":3,"parameterNumberName":"V-component_of_WINDS"},"data":[0,0,0,0,0,0,0,0,0,0,0,0,0,0,0,0,0,0,0,0,0,0,0,0,0,0,0,0,0,0,0,0,0,0,0,0,0,0,0,0,0,0,0,0,0,0,0,0,0,0,0,0,0,0,0,0,0,0,-7.5583,-7.5582,0,-7.5467,-7.5466,-7.5464,-7.5278,-7.5274,-7.5271,-7.5268,-7.5151,-7.5151,-7.5151,0,0,0,0,0,0,0,0,0,0,0,0,0,-7.5644,-7.5644,-7.5583,-7.5582,-7.558,-7.5467,-7.5465,-7.5464,-7.5278,-7.5274,-7.527,-7.5266,-7.5151,-7.5151,-7.5151,0,0,0,0,0,0,0,0,0,0,0,0,0,-7.5582,-7.5644,-7.5583,-7.5474,-7.5463,-7.5467,-7.5465,-7.5463,-7.5279,-7.5274,-7.5269,-7.5264,-7.5151,-7.5151,-7.5151,-7.5254,0,0,-7.5151,-7.5151,0,0,0,0,0,0,0,0,-7.5586,-7.558,-7.5491,-7.5481,-7.5469,-7.5381,-7.5444,-7.5393,-7.528,-7.5349,-7.5268,-7.5262,-7.5232,-7.5225,-7.5214,-7.5248,-7.5243,-7.5151,-7.5151,-7.5151,-7.5151,0,0,0,0,0,0,0,-7.559,-7.5584,-7.5537,-7.549,-7.5477,-7.5431,-7.5416,-7.5434,-7.5321,-7.5343,-7.5329,-7.5318,-7.5225,-7.5215,-7.521,-7.5242,-7.5151,-7.5151,-7.5151,-7.5151,-7.5349,-7.5354,0,0,0,0,0,0,-7.5611,-7.5589,-7.5541,-7.5533,-7.5516,-7.5434,-7.5417,-7.5415,-7.532,-7.53,-7.5322,-7.5309,-7.5217,-7.521,-7.5206,-7.5315,-7.5151,-7.5151,-7.5152,-7.5344,-7.535,-7.5355,0,0,0,0,0,0,-7.5613,-7.5608,-7.5545,-7.5557,-7.5546,-7.5438,-7.5437,-7.5415,-7.5405,-7.5304,-7.5283,-7.5332,-7.5213,-7.5205,-7.5242,-7.5308,-7.5152,-7.5152,-7.5337,-7.5345,-7.5353,-7.5538,0,0,0,0,0,0,-7.5615,-7.561,-7.5648,-7.556,-7.5546,-7.5584,-7.5441,-7.5417,-7.5405,-7.5387,-7.5308,-7.529,-7.5208,-7.5243,-7.5242,-7.5306,-7.5152,-7.5331,-7.5341,-7.535,-7.5525,-7.5551,-7.5573,0,0,0,0,0,-7.5618,-7.5706,-7.5651,-7.5646,-7.5591,-7.5588,-7.5581,-7.5484,-7.5412,-7.5448,-7.5383,-7.5293,-7.5303,-7.5248,-7.5246,-7.5311,-7.5326,-7.5338,-7.5349,-7.5515,-7.5546,-7.5573,0,0,0,0,0,0,-7.5806,-7.5693,-7.563,-7.5692,-7.5651,-7.5557,-7.56,-7.5521,-7.55,-7.5484,-7.5366,-7.535,-7.54,-7.536,-7.5301,-7.5403,-7.53,-7.5312,-7.5427,-7.5456,-7.5479,-7.5486,-7.5152,0,0,0,0,0,-7.5855,-7.5862,-7.5763,-7.5827,-7.581,-7.571,-7.5705,-7.5633,-7.5586,-7.5568,-7.5506,-7.5464,-7.5457,-7.5455,-7.5443,-7.552,-7.5498,-7.5563,-7.5587,-7.5607,-7.5618,-7.565,-7.5677,-7.5394,-7.5394,-7.5393,0,0,-7.5956,-7.5894,-7.5906,-7.5863,-7.5823,-7.5832,-7.5696,-7.5713,-7.5717,-7.5571,-7.5599,-7.5553,-7.5498,-7.5554,-7.5576,-7.5522,-7.5691,-7.5622,-7.5639,-7.5638,-7.5665,-7.5692,-7.5716,-7.5402,-7.54,-7.5399,0,0,-7.6142,-7.6099,-7.6145,-7.6107,-7.6048,-7.598,-7.5992,-7.5909,-7.5872,-7.5899,-7.5788,-7.5793,-7.5785,-7.5749,-7.573,-7.5902,-7.5816,-7.5902,-7.6025,-7.6059,-7.6081,-7.61,-7.6157,-7.6179,-7.5913,-7.5914,-7.5914,0,-7.6274,-7.6283,-7.6179,-7.6201,-7.6184,-7.6052,-7.6097,-7.6066,-7.6007,-7.5998,-7.5939,-7.5922,-7.5877,-7.592,-7.5961,-7.5952,-7.5959,-7.5908,-7.6086,-7.6104,-7.6121,-7.6173,-7.6195,-7.5924,-7.5923,-7.5922,-7.5921,0,-7.6447,-7.6455,-7.65,-7.6443,-7.6432,-7.6467,-7.6367,-7.6368,-7.6298,-7.6237,-7.6265,-7.6205,-7.6177,-7.6183,-7.6116,-7.6216,-7.6184,-7.6108,-7.6001,-7.616,-7.6207,-7.6226,-7.5939,-7.5935,-7.5932,-7.593,0,0,-7.6746,-7.6631,-7.6649,-7.662,-7.6545,-7.6549,-7.6577,-7.6548,-7.6549,-7.6514,-7.6531,-7.6526,-7.6454,-7.6433,-7.6361,-7.6391,-7.6525,-7.6309,-7.6306,-7.6347,-7.6626,-7.668,-7.6705,-7.647,-7.6473,-7.6476,-7.6628,0,-7.6913,-7.6952,-7.6859,-7.6921,-7.6925,-7.6799,-7.6823,-7.6779,-7.6723,-7.6718,-7.6655,-7.6652,-7.6559,-7.6545,-7.6569,-7.6504,-7.6578,-7.6492,-7.6482,-7.6483,-7.6494,-7.6731,-7.6789,-7.6935,-7.6647,-7.665,-7.6652,0,-7.7113,-7.7085,-7.7147,-7.7065,-7.7063,-7.7086,-7.705,-7.7049,-7.6995,-7.6952,-7.6928,-7.6843,-7.6862,-7.6764,-7.6787,-7.673,-7.6721,-7.6688,-7.6692,-7.6683,-7.6574,-7.6724,-7.6981,-7.7001,-7.6681,-7.6679,-7.6677,0,-7.7319,-7.7297,-7.733,-7.731,-7.7217,-7.7235,-7.7197,-7.7139,-7.7127,-7.7097,-7.7087,-7.7061,-7.7045,-7.7026,-7.6935,-7.6873,-7.6968,-7.6863,-7.693,-7.6932,-7.6952,-7.6951,-7.7206,-7.6955,-7.6955,-7.6954,-7.6954,0,-7.7512,-7.7554,-7.742,-7.744,-7.7483,-7.7376,-7.7421,-7.737,-7.732,-7.7326,-7.7218,-7.7227,-7.7109,-7.7104,-7.7034,-7.7061,-7.7057,-7.702,-7.7,-7.7027,-7.7031,-7.7016,-7.7001,-7.696,-7.6959,-7.6958,-7.6957,0,-7.7747,-7.766,-7.7687,-7.7596,-7.7574,-7.7609,-7.7531,-7.7545,-7.7482,-7.7492,-7.7488,-7.7389,-7.7377,-7.7286,-7.7256,-7.7208,-7.726,-7.7223,-7.7277,-7.7263,-7.7333,-7.7325,-7.7583,-7.7609,-7.7347,-7.735,-7.7352,0,-7.7873,-7.7902,-7.7814,-7.7811,-7.7777,-7.7774,-7.776,-7.7657,-7.7647,-7.7588,-7.7608,-7.7588,-7.7566,-7.7553,-7.7478,-7.7452,-7.741,-7.7502,-7.7406,-7.743,-7.7405,-7.7403,-7.7403,-7.7522,-7.7525,-7.7528,-7.753,0,-7.8106,-7.8061,-7.8045,-7.8015,-7.8002,-7.7973,-7.7937,-7.7941,-7.7826,-7.7821,-7.7807,-7.779,-7.7757,-7.7737,-7.7698,-7.7658,-7.7574,-7.7562,-7.7574,-7.76,-7.7628,-7.7608,-7.7328,-7.7555,-7.7553,-7.7551,-7.7549,-7.7548,-7.8286,-7.8304,-7.8244,-7.823,-7.8192,-7.8161,-7.8169,-7.8106,-7.8093,-7.8057,-7.7998,-7.7992,-7.7936,-7.7875,-7.7842,-7.7834,-7.7786,-7.7806,-7.781,-7.7815,-7.7828,-7.7634,-7.7828,-7.7827,-7.7826,-7.7825,-7.7825,0,-7.8508,-7.8463,-7.8452,-7.8404,-7.8393,-7.8317,-7.8273,-7.8268,-7.8264,-7.8219,-7.8199,-7.8182,-7.8161,-7.8085,-7.8055,-7.8064,-7.8025,-7.806,-7.8055,-7.8046,-7.7876,-7.7864,-7.8092,-7.8092,-7.8092,-7.8091,-7.8091,-7.8091,-7.8621,-7.8646,-7.8595,-7.86,-7.8554,-7.8547,-7.8528,-7.8498,-7.8461,-7.8447,-7.8429,-7.8379,-7.832,-7.8286,-7.8263,-7.824,-7.8232,-7.8279,-7.8244,-7.8085,-7.8059,-7.8034,-7.8023,-7.828,-7.828,-7.8414,-7.8415,-7.8416]}]]